• In Czech Republic
  • List of Countries
  • For 7 days
  • Water Temperature
  • Satellite Maps
  • Weather Map
  • Weather Widgets
  • user-avatar
    Login

    Hourly Weather Ottawa

    Today, 11 December, Monday

    Time Temperature Precipitation Wind Pressure Humidity
    00:00 -9°C° 0 mm 4 mps 748 mmHg 69%
    01:00 -10°C° 0 mm 4 mps 749 mmHg 66%
    02:00 -11°C° 0 mm 4 mps 749 mmHg 65%
    03:00 -12°C° 0 mm 4 mps 750 mmHg 64%
    04:00 -14°C° 0 mm 4 mps 750 mmHg 63%
    05:00 -14°C° 0 mm 4 mps 751 mmHg 62%
    06:00 -13°C° 0 mm 3 mps 752 mmHg 62%
    07:00 -14°C° 0 mm 3 mps 752 mmHg 61%
    08:00 -14°C° 0 mm 3 mps 753 mmHg 59%
    09:00 -12°C° 0 mm 2 mps 753 mmHg 57%
    10:00 -12°C° 0 mm 2 mps 754 mmHg 55%
    11:00 -10°C° 0 mm 2 mps 754 mmHg 51%
    12:00 -10°C° 0 mm 2 mps 754 mmHg 47%
    13:00 -9°C° 0 mm 2 mps 753 mmHg 43%
    14:00 -8°C° 0 mm 1 mps 753 mmHg 42%
    15:00 -8°C° 0 mm 1 mps 753 mmHg 42%
    16:00 -8°C° 0 mm 1 mps 753 mmHg 42%
    17:00 -8°C° 0 mm 1 mps 753 mmHg 43%
    18:00 -8°C° 0 mm 1 mps 753 mmHg 44%
    19:00 -8°C° 0 mm 1 mps 752 mmHg 44%
    20:00 -8°C° 0 mm 1 mps 752 mmHg 46%
    21:00 -8°C° 0 mm 1 mps 752 mmHg 48%
    22:00 -9°C° 0 mm 2 mps 751 mmHg 49%
    23:00 -9°C° 0 mm 2 mps 750 mmHg 52%

    Tomorrow, 12 December, Tuesday

    Time Temperature Precipitation Wind Pressure Humidity
    00:00 -10°C° 0 mm 3 mps 750 mmHg 56%
    01:00 -10°C° 0 mm 3 mps 749 mmHg 59%
    02:00 -11°C° 0.2 mm 4 mps 748 mmHg 66%
    03:00 -11°C° 0.2 mm 4 mps 748 mmHg 72%
    04:00 -11°C° 0.2 mm 4 mps 747 mmHg 79%
    05:00 -12°C° 0.3 mm 5 mps 746 mmHg 82%
    06:00 -12°C° 0.3 mm 5 mps 745 mmHg 85%
    07:00 -12°C° 0.3 mm 6 mps 744 mmHg 88%
    08:00 -11°C° 0.6 mm 6 mps 743 mmHg 88%
    09:00 -11°C° 0.6 mm 6 mps 742 mmHg 89%
    10:00 -11°C° 0.6 mm 6 mps 741 mmHg 89%
    11:00 -11°C° 0.5 mm 6 mps 740 mmHg 90%
    12:00 -10°C° 0.5 mm 6 mps 739 mmHg 90%
    13:00 -10°C° 0.5 mm 6 mps 738 mmHg 90%
    14:00 -10°C° 0.5 mm 6 mps 738 mmHg 90%
    15:00 -10°C° 0.5 mm 6 mps 737 mmHg 91%
    16:00 -10°C° 0.5 mm 5 mps 737 mmHg 91%
    17:00 -10°C° 0.5 mm 5 mps 737 mmHg 91%
    18:00 -10°C° 0.5 mm 5 mps 737 mmHg 90%
    19:00 -10°C° 0.5 mm 5 mps 736 mmHg 90%
    20:00 -10°C° 0.4 mm 5 mps 736 mmHg 89%
    21:00 -10°C° 0.4 mm 5 mps 736 mmHg 89%
    22:00 -11°C° 0.4 mm 5 mps 736 mmHg 88%
    23:00 -11°C° 0.3 mm 6 mps 736 mmHg 88%

    Day after tomorrow, 13 December, Wednesday

    Time Temperature Precipitation Wind Pressure Humidity
    00:00 -12°C° 0.3 mm 6 mps 736 mmHg 87%
    01:00 -14°C° 0.3 mm 6 mps 736 mmHg 87%
    02:00 -14°C° 0.3 mm 6 mps 736 mmHg 87%
    03:00 -15°C° 0.3 mm 6 mps 736 mmHg 87%
    04:00 -15°C° 0.3 mm 6 mps 736 mmHg 86%
    05:00 -17°C° 0.2 mm 7 mps 736 mmHg 85%
    06:00 -17°C° 0.2 mm 7 mps 737 mmHg 85%
    07:00 -17°C° 0.2 mm 7 mps 737 mmHg 84%
    08:00 -17°C° 0.2 mm 7 mps 738 mmHg 83%
    09:00 -17°C° 0.2 mm 7 mps 738 mmHg 82%
    10:00 -17°C° 0.2 mm 7 mps 738 mmHg 81%
    11:00 -17°C° 0.1 mm 7 mps 738 mmHg 80%
    12:00 -18°C° 0.1 mm 8 mps 738 mmHg 79%
    13:00 -18°C° 0.1 mm 8 mps 738 mmHg 79%
    14:00 -18°C° 0.1 mm 7 mps 739 mmHg 78%
    15:00 -18°C° 0.1 mm 7 mps 739 mmHg 78%
    16:00 -19°C° 0.1 mm 7 mps 739 mmHg 77%
    17:00 -18°C° 0 mm 6 mps 740 mmHg 77%
    18:00 -20°C° 0 mm 6 mps 741 mmHg 78%
    19:00 -20°C° 0 mm 6 mps 741 mmHg 78%
    20:00 -21°C° 0 mm 6 mps 741 mmHg 79%
    21:00 -20°C° 0 mm 5 mps 742 mmHg 79%
    22:00 -21°C° 0 mm 5 mps 742 mmHg 80%
    23:00 -21°C° 0 mm 5 mps 742 mmHg 81%

    14 December, Thursday

    Time Temperature Precipitation Wind Pressure Humidity
    00:00 -22°C° 0 mm 5 mps 742 mmHg 82%
    01:00 -22°C° 0 mm 4 mps 743 mmHg 82%
    02:00 -22°C° 0 mm 4 mps 743 mmHg 83%
    03:00 -23°C° 0 mm 4 mps 743 mmHg 84%
    04:00 -22°C° 0 mm 3 mps 743 mmHg 85%
    05:00 -22°C° 0 mm 3 mps 744 mmHg 86%
    06:00 -23°C° 0 mm 3 mps 744 mmHg 87%
    07:00 -21°C° 0 mm 2 mps 744 mmHg 88%
    08:00 -20°C° 0 mm 2 mps 745 mmHg 86%
    09:00 -19°C° 0 mm 2 mps 745 mmHg 83%
    10:00 -18°C° 0 mm 2 mps 745 mmHg 81%
    11:00 -17°C° 0 mm 2 mps 745 mmHg 79%
    12:00 -16°C° 0 mm 2 mps 745 mmHg 77%
    13:00 -14°C° 0 mm 2 mps 744 mmHg 75%
    14:00 -15°C° 0 mm 2 mps 744 mmHg 78%
    15:00 -15°C° 0 mm 2 mps 745 mmHg 80%
    16:00 -13°C° 0 mm 1 mps 745 mmHg 83%
    17:00 -16°C° 0 mm 2 mps 745 mmHg 84%
    18:00 -17°C° 0 mm 2 mps 746 mmHg 85%
    19:00 -17°C° 0 mm 2 mps 747 mmHg 87%
    20:00 -18°C° 0 mm 2 mps 747 mmHg 87%
    21:00 -18°C° 0 mm 2 mps 748 mmHg 88%
    22:00 -19°C° 0 mm 2 mps 748 mmHg 88%
    23:00 -17°C° 0 mm 1 mps 748 mmHg 89%

    15 December, Friday

    Time Temperature Precipitation Wind Pressure Humidity
    00:00 -17°C° 0 mm 1 mps 748 mmHg 89%
    01:00 -18°C° 0 mm 1 mps 749 mmHg 89%
    02:00 -18°C° 0 mm 1 mps 749 mmHg 90%
    03:00 -18°C° 0 mm 1 mps 749 mmHg 90%
    04:00 -18°C° 0 mm 1 mps 749 mmHg 90%
    05:00 -19°C° 0 mm 1 mps 749 mmHg 91%
    06:00 -19°C° 0 mm 1 mps 750 mmHg 91%
    07:00 -19°C° 0 mm 1 mps 750 mmHg 91%
    08:00 -18°C° 0 mm 1 mps 750 mmHg 89%
    09:00 -16°C° 0 mm 1 mps 750 mmHg 86%
    10:00 -15°C° 0 mm 1 mps 750 mmHg 83%
    11:00 -14°C° 0 mm 1 mps 750 mmHg 80%
    12:00 -13°C° 0 mm 1 mps 749 mmHg 77%
    13:00 -12°C° 0 mm 1 mps 749 mmHg 74%
    14:00 -12°C° 0 mm 1 mps 748 mmHg 78%
    15:00 -13°C° 0 mm 1 mps 748 mmHg 81%
    16:00 -14°C° 0 mm 1 mps 748 mmHg 84%
    17:00 -14°C° 0 mm 1 mps 748 mmHg 86%
    18:00 -17°C° 0 mm 2 mps 748 mmHg 87%
    19:00 -17°C° 0 mm 2 mps 748 mmHg 89%
    20:00 -17°C° 0 mm 2 mps 748 mmHg 89%
    21:00 -17°C° 0 mm 2 mps 748 mmHg 89%
    22:00 -17°C° 0 mm 2 mps 748 mmHg 90%
    23:00 -17°C° 0 mm 2 mps 747 mmHg 91%

    16 December, Saturday

    Time Temperature Precipitation Wind Pressure Humidity
    00:00 -16°C° 0 mm 2 mps 747 mmHg 92%
    01:00 -16°C° 0 mm 2 mps 746 mmHg 93%
    02:00 -15°C° 0.1 mm 2 mps 746 mmHg 94%
    03:00 -14°C° 0.1 mm 2 mps 746 mmHg 94%
    04:00 -13°C° 0.1 mm 2 mps 745 mmHg 94%
    05:00 -12°C° 0.1 mm 2 mps 745 mmHg 93%
    06:00 -10°C° 0.1 mm 2 mps 745 mmHg 93%
    07:00 -10°C° 0.1 mm 2 mps 744 mmHg 92%
    08:00 -10°C° 0.1 mm 3 mps 744 mmHg 90%
    09:00 -8°C° 0.1 mm 3 mps 744 mmHg 88%
    10:00 -8°C° 0.1 mm 4 mps 744 mmHg 87%
    11:00 -7°C° 0.3 mm 4 mps 743 mmHg 87%
    12:00 -6°C° 0.3 mm 5 mps 743 mmHg 88%
    13:00 -6°C° 0.3 mm 5 mps 742 mmHg 89%
    14:00 -4°C° 0.2 mm 4 mps 742 mmHg 89%
    15:00 -4°C° 0.2 mm 4 mps 742 mmHg 89%
    16:00 -4°C° 0.2 mm 3 mps 742 mmHg 90%
    17:00 -4°C° 0.1 mm 3 mps 743 mmHg 90%
    18:00 -4°C° 0.1 mm 3 mps 744 mmHg 91%
    19:00 -3°C° 0.1 mm 2 mps 745 mmHg 92%
    20:00 -4°C° 0.1 mm 2 mps 745 mmHg 91%
    21:00 -5°C° 0.1 mm 2 mps 746 mmHg 90%
    22:00 -6°C° 0.1 mm 2 mps 746 mmHg 89%
    23:00 -7°C° 0.1 mm 2 mps 746 mmHg 89%
    Show more